| time (UTC) | temp C | wind direction | speed KPH | gust KPH | rain 1hr cm | rain 24hr cm | rain mn cm | humidity % | barometer mb |
| 20260505061559 | 11 | 267 | 0.0 | 0.0 | 0.00 | 0.00 | 0.61 | 93 | 1010.1 |
| 20260505060058 | 11 | 282 | 0.0 | 0.0 | 0.00 | 0.00 | 0.58 | 93 | 1010.0 |
| 20260505054558 | 11 | 233 | 0.0 | 0.0 | 0.00 | 0.00 | 0.56 | 93 | 1010.1 |
| 20260505053057 | 11 | 233 | 0.0 | 0.0 | 0.00 | 0.00 | 0.53 | 92 | 1009.9 |
| 20260505051556 | 11 | 233 | 0.0 | 0.0 | 0.00 | 0.00 | 0.51 | 91 | 1010.0 |
| 20260505041549 | 11 | 216 | 1.6 | 0.0 | 0.00 | 0.00 | 0.18 | 84 | 1010.2 |
| 20260505040048 | 12 | 246 | 4.8 | 0.0 | 0.00 | 0.00 | 0.08 | 80 | 1010.0 |
| 20260505034550 | 12 | 198 | 6.4 | 0.0 | 0.00 | 0.00 | 0.05 | 76 | 1009.9 |
| 20260505033045 | 11 | 202 | 0.0 | 0.0 | 0.00 | 0.00 | 0.03 | 83 | 1009.7 |
| 20260505031549 | 11 | 202 | 0.0 | 0.0 | 0.00 | 0.00 | 0.03 | 82 | 1009.7 |
| 20260505030044 | 12 | 202 | 0.0 | 0.0 | 0.00 | 0.00 | 0.03 | 82 | 1009.7 |
| 20260505024542 | 12 | 202 | 1.6 | 0.0 | 0.00 | 0.00 | 0.03 | 79 | 1009.9 |
| 20260505023046 | 12 | 151 | 0.0 | 0.0 | 0.00 | 0.00 | 0.03 | 81 | 1010.1 |
| 20260505021541 | 12 | 193 | 3.2 | 0.0 | 0.00 | 0.00 | 0.03 | 76 | 1010.4 |
| 20260505020039 | 12 | 188 | 1.6 | 0.0 | 0.00 | 0.00 | 0.03 | 77 | 1010.6 |
| 20260505014539 | 12 | 196 | 0.0 | 0.0 | 0.00 | 0.00 | 0.03 | 77 | 1010.7 |
| 20260505013037 | 12 | 145 | 0.0 | 0.0 | 0.00 | 0.00 | 0.03 | 83 | 1010.6 |
| 20260505011538 | 12 | 145 | 0.0 | 0.0 | 0.00 | 0.00 | 0.03 | 83 | 1010.8 |
| 20260505010100 | 12 | 145 | 0.0 | 0.0 | 0.00 | 0.00 | 0.00 | 81 | 1011.0 |
| 20260505004534 | 12 | 145 | 0.0 | 0.0 | 0.00 | 0.00 | 0.00 | 78 | 1011.4 |
| 20260505003039 | 12 | 145 | 1.6 | 0.0 | 0.00 | 0.00 | 0.00 | 79 | 1011.5 |
| 20260505001531 | 12 | 28 | 0.0 | 0.0 | 0.00 | 0.00 | 0.00 | 82 | 1011.7 |
| 20260505000041 | 12 | 27 | 0.0 | 0.0 | 0.00 | 0.00 | 0.00 | 80 | 1011.9 |
| 20260504234528 | 12 | 27 | 0.0 | 0.0 | 0.00 | 0.00 | 0.00 | 77 | 1012.2 |
| 20260504233026 | 13 | 27 | 0.0 | 0.0 | 0.00 | 0.00 | 0.00 | 74 | 1012.5 |
| 20260504231525 | 13 | 27 | 0.0 | 0.0 | 0.00 | 0.00 | 0.00 | 70 | 1012.8 |
| 20260504230036 | 13 | 27 | 0.0 | 0.0 | 0.00 | 0.00 | 0.00 | 69 | 1012.9 |
| 20260504224523 | 13 | 27 | 0.0 | 0.0 | 0.00 | 0.00 | 0.00 | 67 | 1013.1 |
| 20260504223020 | 13 | 27 | 0.0 | 0.0 | 0.00 | 0.00 | 0.00 | 64 | 1013.2 |
| 20260504221536 | 14 | 27 | 0.0 | 0.0 | 0.00 | 0.00 | 0.00 | 63 | 1013.3 |
| 20260504220016 | 14 | 25 | 0.0 | 0.0 | 0.00 | 0.00 | 0.00 | 58 | 1013.3 |
| 20260504214515 | 14 | 25 | 0.0 | 0.0 | 0.00 | 0.00 | 0.00 | 57 | 1013.5 |
| 20260504213016 | 15 | 25 | 0.0 | 0.0 | 0.00 | 0.00 | 0.00 | 56 | 1013.7 |
| 20260504211515 | 15 | 233 | 0.0 | 0.0 | 0.00 | 0.00 | 0.00 | 55 | 1013.8 |
| 20260504210019 | 15 | 282 | 0.0 | 0.0 | 0.00 | 0.00 | 0.00 | 55 | 1014.0 |
| 20260504204514 | 15 | 284 | 0.0 | 0.0 | 0.00 | 0.00 | 0.00 | 55 | 1013.9 |
| 20260504203014 | 15 | 256 | 0.0 | 0.0 | 0.00 | 0.00 | 0.00 | 56 | 1014.0 |
| 20260504201513 | 15 | 230 | 0.0 | 0.0 | 0.00 | 0.00 | 0.00 | 54 | 1014.0 |
| 20260504200013 | 15 | 258 | 0.0 | 0.0 | 0.00 | 0.00 | 0.00 | 55 | 1013.9 |
| 20260504194513 | 15 | 274 | 0.0 | 0.0 | 0.00 | 0.00 | 0.00 | 56 | 1013.9 |
| 20260504193013 | 15 | 280 | 0.0 | 0.0 | 0.00 | 0.00 | 0.00 | 58 | 1013.7 |
| 20260504191513 | 15 | 264 | 1.6 | 0.0 | 0.00 | 0.00 | 0.00 | 58 | 1013.6 |
| 20260504190011 | 15 | 280 | 1.6 | 0.0 | 0.00 | 0.00 | 0.00 | 58 | 1013.5 |
| 20260504184516 | 16 | 236 | 1.6 | 0.0 | 0.00 | 0.00 | 0.00 | 58 | 1013.5 |
| 20260504183010 | 16 | 253 | 1.6 | 0.0 | 0.00 | 0.00 | 0.00 | 57 | 1013.3 |
| 20260504181515 | 17 | 196 | 0.0 | 0.0 | 0.00 | 0.00 | 0.00 | 59 | 1013.2 |
| 20260504180012 | 17 | 196 | 0.0 | 0.0 | 0.00 | 0.00 | 0.00 | 57 | 1013.1 |
| 20260504174508 | 17 | 196 | 0.0 | 0.0 | 0.00 | 0.00 | 0.00 | 52 | 1013.0 |
| 20260504173009 | 17 | 193 | 1.6 | 0.0 | 0.00 | 0.00 | 0.00 | 55 | 1013.0 |
| 20260504171507 | 18 | 195 | 1.6 | 0.0 | 0.00 | 0.00 | 0.00 | 56 | 1013.0 |
| 20260504081554 | 15 | 172 | 0.0 | 0.0 | 0.00 | 0.00 | 0.00 | 65 | 1015.0 |
| 20260504080109 | 14 | 172 | 0.0 | 0.0 | 0.00 | 0.00 | 0.00 | 67 | 1015.0 |